Starlink 11637

operational
NORAD ID: 63190 Int'l Des: 2025-048 Owner: SPXS Country: US Constellation: starlink
LEOCIRCULAR

Über Starlink 11637

Beschreibung wird geladen...

Live-Position

3D-Globus wird geladen...

Nächste Überflüge

Höhenverlauf

Altitude vs Time

uPlot chart will show altitude changes over time

Zweizeiliger Elementsatz

1 63190U 25048H 25350.31277898 .00197556 00000-0 14917-2 0 9995
2 63190 42.9979 102.8688 0001215 266.0524 94.0205 15.71079703 45401
Epoch: 16. Dez. 2025 • Age: 14 hours

Aktueller Status

Höhe 360.1 km
Geschwindigkeit 7.69 km/s
Subsatellitenpunkt -22.88°S, 30.59°E
Startdatum 13. März 2025
Alter 0.7 years
Typ internet

Technische Details

Klassifizierung Payload
Masse 960.00 kg
Trockenmasse 910.00 kg
Gesamtmasse 960.00 kg
Länge 0.30 m
Durchmesser 4.10 m
Spannweite 29.00 m
Form Box + pan
Hersteller SPXS
Bus-Typ Starlink V2MD
Phasenstatus In Orbit
Besitzer/Staat SPXS/US

Große Konstellationen

Loading constellations...